Southern Pines, NC

12:07 AM EDT on March 28, 2017 (GMT -0400)
Moore County

Weather History for KSOP - September, 2014

Change the Weather History Date:

Friday, September 12, 2014

  Actual Average Record
Temperature  
Mean Temperature 80 °F -  
Max Temperature 86 °F 79 °F 91 °F (2013)
Min Temperature 71 °F 60 °F 51 °F (2012)
Cooling Degree Days 14    
Growing Degree Days 30 (Base 50)    
Moisture  
Dew Point 70 °F    
Average Humidity 79    
Maximum Humidity 89    
Minimum Humidity 62    
Precipitation  
Precipitation 0.04 in - - ()
Sea Level Pressure  
Sea Level Pressure 30.04 in    
Wind  
Wind Speed 3 mph (East)    
Max Wind Speed 12 mph    
Max Gust Speed -    
Visibility 10 miles    
Events Thunderstorm    
Averages and records for this station are not official NWS values.
T = Trace of Precipitation, MM = Missing Value Source: NWS Daily Summary

Daily Weather History Graph

Daily Weather History Graph

Search for Another Location

Airport or City:

Trip Planner

Search our weather history database for the weather conditions in past years. The results will help you decide how hot, cold, wet, or windy it might be!

Date:

Astronomy

Sep. 12, 2014 Rise Set
Actual Time 6:58 AM EDT 7:28 PM EDT
Civil Twilight 6:32 AM EDT 7:54 PM EDT
Nautical Twilight 6:02 AM EDT 8:24 PM EDT
Astronomical Twilight 5:31 AM EDT 8:54 PM EDT
Moon 9:58 PM EDT (9/12) 10:50 AM EDT (9/12)
Length of Visible Light 13h 21m
Length of Day
12h 30m
Waning Gibbous, 83% of the Moon is Illuminated
Sep 12
Waning Gibbous
Sep 15
Last Quarter
Sep 24
New
Oct 1
First Quarter
Oct 8
Full

Hourly Weather History & Observations

Time (EDT) Temp. Heat Index Dew Point Humidity Pressure Visibility Wind Dir Wind Speed Gust Speed Precip Events Conditions
12:15 AM 75.2 °F - 69.8 °F 83% 30.01 in 10.0 mi Calm Calm - N/A   Partly Cloudy
12:35 AM 75.2 °F - 68.0 °F 78% 30.01 in 10.0 mi Calm Calm - N/A   Partly Cloudy
12:55 AM 73.4 °F - 68.0 °F 83% 30.01 in 10.0 mi Calm Calm - N/A   Clear
1:15 AM 73.4 °F - 69.8 °F 88% 30.01 in 10.0 mi SW 3.5 mph - N/A   Scattered Clouds
1:35 AM 73.4 °F - 68.0 °F 83% 30.01 in 10.0 mi Calm Calm - N/A   Mostly Cloudy
1:55 AM 75.2 °F - 69.8 °F 83% 30.01 in 10.0 mi Calm Calm - N/A   Overcast
2:15 AM 73.4 °F - 69.8 °F 88% 30.01 in 10.0 mi Calm Calm - N/A   Scattered Clouds
2:35 AM 73.4 °F - 69.8 °F 88% 30.00 in 10.0 mi Calm Calm - N/A   Scattered Clouds
2:55 AM 73.4 °F - 68.0 °F 83% 30.01 in 10.0 mi SSW 3.5 mph - N/A   Mostly Cloudy
3:15 AM 73.4 °F - 69.8 °F 88% 30.00 in 10.0 mi Calm Calm - N/A   Overcast
3:35 AM 75.2 °F - 69.8 °F 83% 30.00 in 10.0 mi South 3.5 mph - N/A   Overcast
3:55 AM 75.2 °F - 69.8 °F 83% 30.00 in 10.0 mi SSE 3.5 mph - N/A   Mostly Cloudy
4:15 AM 75.2 °F - 68.0 °F 78% 29.99 in 10.0 mi South 4.6 mph - N/A   Overcast
4:35 AM 75.2 °F - 68.0 °F 78% 29.99 in 10.0 mi Calm Calm - N/A   Mostly Cloudy
5:15 AM 73.4 °F - 68.0 °F 83% 30.00 in 10.0 mi West 3.5 mph - N/A   Clear
5:35 AM 75.2 °F - 68.0 °F 78% 30.00 in 10.0 mi Calm Calm - N/A   Partly Cloudy
5:55 AM 73.4 °F - 68.0 °F 83% 30.01 in 10.0 mi Calm Calm - N/A   Partly Cloudy
6:15 AM 73.4 °F - 68.0 °F 83% 30.01 in 10.0 mi Calm Calm - N/A   Clear
6:35 AM 73.4 °F - 68.0 °F 83% 30.02 in 10.0 mi Calm Calm - N/A   Clear
6:55 AM 73.4 °F - 68.0 °F 83% 30.02 in 10.0 mi Calm Calm - N/A   Clear
7:15 AM 73.4 °F - 68.0 °F 83% 30.03 in 10.0 mi Calm Calm - N/A   Clear
7:35 AM 73.4 °F - 68.0 °F 83% 30.04 in 10.0 mi NNE 3.5 mph - N/A   Clear
7:55 AM 73.4 °F - 69.8 °F 88% 30.05 in 10.0 mi NE 3.5 mph - N/A   Clear
8:15 AM 73.4 °F - 69.8 °F 88% 30.04 in 10.0 mi Calm Calm - N/A   Partly Cloudy
8:35 AM 75.2 °F - 69.8 °F 83% 30.05 in 10.0 mi Calm Calm - N/A   Mostly Cloudy
8:55 AM 75.2 °F - 69.8 °F 83% 30.05 in 10.0 mi Calm Calm - N/A   Overcast
9:15 AM 77.0 °F - 69.8 °F 78% 30.05 in 10.0 mi Calm Calm - N/A   Overcast
9:35 AM 77.0 °F - 69.8 °F 78% 30.06 in 10.0 mi Calm Calm - N/A   Mostly Cloudy
9:55 AM 78.8 °F - 69.8 °F 74% 30.06 in 10.0 mi Calm Calm - N/A   Scattered Clouds
10:15 AM 78.8 °F - 69.8 °F 74% 30.06 in 10.0 mi Calm Calm - N/A   Partly Cloudy
10:35 AM 78.8 °F - 69.8 °F 74% 30.06 in 10.0 mi East 4.6 mph - N/A   Clear
10:55 AM 78.8 °F - 69.8 °F 74% 30.06 in 10.0 mi NNE 5.8 mph - N/A   Partly Cloudy
11:15 AM 80.6 °F 83.9 °F 69.8 °F 70% 30.06 in 10.0 mi NE 4.6 mph - N/A   Clear
11:35 AM 80.6 °F 83.9 °F 69.8 °F 70% 30.06 in 10.0 mi East 6.9 mph - N/A   Partly Cloudy
11:55 AM 82.4 °F 86.3 °F 69.8 °F 66% 30.06 in 10.0 mi NNE 5.8 mph - N/A   Mostly Cloudy
12:15 PM 82.4 °F 86.3 °F 69.8 °F 66% 30.05 in 10.0 mi ENE 4.6 mph - N/A   Mostly Cloudy
12:35 PM 82.4 °F 86.3 °F 69.8 °F 66% 30.05 in 10.0 mi ENE 4.6 mph - N/A   Scattered Clouds
1:15 PM 84.2 °F 89.6 °F 71.6 °F 66% 30.04 in 10.0 mi East 4.6 mph - N/A   Scattered Clouds
1:35 PM 84.2 °F 89.6 °F 71.6 °F 66% 30.04 in 10.0 mi North 5.8 mph - N/A   Mostly Cloudy
1:55 PM 84.2 °F 89.6 °F 71.6 °F 66% 30.03 in 10.0 mi NE 8.1 mph - N/A   Overcast
2:15 PM 82.4 °F 87.2 °F 71.6 °F 70% 30.03 in 10.0 mi ENE 9.2 mph - N/A   Mostly Cloudy
2:35 PM 84.2 °F 89.6 °F 71.6 °F 66% 30.01 in 10.0 mi NE 6.9 mph - N/A   Mostly Cloudy
2:55 PM 86.0 °F 91.8 °F 71.6 °F 62% 30.00 in 10.0 mi ENE 11.5 mph - N/A   Mostly Cloudy
3:15 PM 86.0 °F 91.8 °F 71.6 °F 62% 30.00 in 10.0 mi ENE 8.1 mph - N/A   Partly Cloudy
3:35 PM 86.0 °F 91.8 °F 71.6 °F 62% 30.01 in 10.0 mi ESE 6.9 mph - N/A   Scattered Clouds
3:55 PM 84.2 °F 89.6 °F 71.6 °F 66% 30.00 in 10.0 mi South 9.2 mph - N/A   Mostly Cloudy
4:15 PM 80.6 °F 83.9 °F 69.8 °F 70% 30.02 in 10.0 mi South 5.8 mph - N/A   Overcast
4:35 PM 80.6 °F 83.9 °F 69.8 °F 70% 30.01 in 10.0 mi SE 4.6 mph - N/A   Scattered Clouds
4:55 PM 80.6 °F 83.9 °F 69.8 °F 70% 30.01 in 10.0 mi SE 4.6 mph - N/A   Mostly Cloudy
5:15 PM 80.6 °F 83.9 °F 69.8 °F 70% 30.01 in 10.0 mi East 3.5 mph - N/A   Overcast
5:35 PM 78.8 °F - 69.8 °F 74% 30.02 in 10.0 mi NE 6.9 mph - N/A Thunderstorm Overcast
5:55 PM 77.0 °F - 69.8 °F 78% 30.03 in 10.0 mi NE 6.9 mph - N/A Thunderstorm Thunderstorm
6:15 PM 75.2 °F - 69.8 °F 83% 30.03 in 10.0 mi NE 4.6 mph - 0.01 in   Overcast
6:35 PM 75.2 °F - 71.6 °F 89% 30.04 in 8.0 mi NE 4.6 mph - 0.02 in   Overcast
6:55 PM 75.2 °F - 71.6 °F 89% 30.04 in 5.0 mi NE 5.8 mph - 0.04 in   Overcast
7:15 PM 75.2 °F - 71.6 °F 89% 30.05 in 5.0 mi East 4.6 mph - N/A   Mostly Cloudy
7:35 PM 75.2 °F - 71.6 °F 89% 30.06 in 9.0 mi East 6.9 mph - N/A   Overcast
7:55 PM 75.2 °F - 69.8 °F 83% 30.06 in 10.0 mi East 5.8 mph - N/A   Overcast
8:15 PM 75.2 °F - 69.8 °F 83% 30.07 in 10.0 mi East 6.9 mph - N/A   Overcast
8:35 PM 73.4 °F - 69.8 °F 88% 30.08 in 10.0 mi ESE 5.8 mph - N/A   Overcast
8:55 PM 73.4 °F - 69.8 °F 88% 30.08 in 10.0 mi ESE 4.6 mph - N/A   Overcast
9:15 PM 73.4 °F - 69.8 °F 88% 30.08 in 10.0 mi ESE 5.8 mph - N/A   Overcast
9:35 PM 73.4 °F - 69.8 °F 88% 30.08 in 10.0 mi ESE 3.5 mph - N/A   Overcast
9:55 PM 73.4 °F - 69.8 °F 88% 30.08 in 10.0 mi East 4.6 mph - N/A   Overcast
10:15 PM 73.4 °F - 69.8 °F 88% 30.07 in 10.0 mi ENE 4.6 mph - N/A   Overcast
10:35 PM 73.4 °F - 69.8 °F 88% 30.08 in 10.0 mi East 4.6 mph - N/A   Overcast
10:55 PM 73.4 °F - 68.0 °F 83% 30.09 in 10.0 mi East 5.8 mph - N/A   Overcast
11:15 PM 73.4 °F - 68.0 °F 83% 30.09 in 10.0 mi East 5.8 mph - N/A   Overcast
11:35 PM 73.4 °F - 68.0 °F 83% 30.10 in 5.0 mi ENE 8.1 mph - N/A   Overcast
11:55 PM 71.6 °F - 68.0 °F 88% 30.09 in 4.0 mi East 9.2 mph - N/A   Overcast